K5WXL Weather Reports


time (UTC)temp
C
wind
direction
speed
KPH
gust
KPH
rain 1hr
cm
rain 24hr
cm
rain mn
cm
humidity
%
barometer
mb
20260510044524 18 131 19.3 32.2 0.00 1.37 1.37 94 1009.6
20260510043037 18 107 25.7 40.2 0.00 1.37 1.37 95 1009.3
20260510041523 17 116 25.7 33.8 0.00 1.37 1.37 95 1009.1
20260510040007 17 108 19.3 35.4 1.07 1.37 1.37 95 1009.3
20260510034505 17 104 25.7 35.4 1.19 1.37 1.37 95 1009.6
20260510033010 17 72 27.4 37.0 1.32 1.37 1.37 95 1010.1
20260510031518 17 90 27.4 48.3 1.32 1.37 1.37 94 1010.7
20260510030020 17 63 37.0 56.3 0.28 0.30 0.30 93 1010.4
20260510024502 18 53 43.5 56.3 0.15 0.18 0.18 92 1009.1
20260510023008 24 15 41.8 61.2 0.00 0.03 0.03 62 1009.6
20260510021527 23 1 1.6 11.3 0.00 0.03 0.03 69 1007.8
20260510020018 23 101 8.0 11.3 0.00 0.10 0.03 68 1007.0
20260510014523 23 118 9.7 12.9 0.00 0.20 0.03 68 1007.1
20260510013004 24 106 4.8 9.7 0.00 1.96 0.03 64 1007.2
20260510011509 25 111 8.0 12.9 0.00 2.13 0.03 62 1006.7
20260510010014 25 105 8.0 9.7 0.00 2.13 0.03 60 1006.7
20260510004527 26 121 8.0 12.9 0.00 2.13 0.03 57 1006.8
20260510003026 26 111 11.3 17.7 0.00 2.13 0.03 54 1006.7
20260510001510 27 124 14.5 20.9 0.00 2.13 0.03 49 1006.7
20260510000010 28 110 17.7 24.1 0.00 2.13 0.03 45 1006.9
20260509234518 28 120 14.5 27.4 0.00 2.13 0.03 49 1006.7
20260509233018 28 139 17.7 25.7 0.00 2.13 0.03 46 1006.8
20260509231526 28 119 16.1 25.7 0.00 2.13 0.03 47 1006.9
20260509230010 28 112 19.3 25.7 0.00 2.13 0.03 47 1007.3
20260509224516 29 101 14.5 24.1 0.00 2.13 0.03 47 1007.5
20260509223018 28 129 12.9 19.3 0.00 2.13 0.03 48 1007.8
20260509221524 28 112 11.3 20.9 0.00 2.13 0.03 45 1007.9
20260509220027 28 128 14.5 25.7 0.00 2.13 0.03 48 1007.9
20260509214514 28 114 12.9 22.5 0.00 2.13 0.03 49 1008.0
20260509213026 28 131 8.0 17.7 0.00 2.13 0.03 50 1008.1
20260509211520 28 117 11.3 20.9 0.00 2.13 0.03 49 1008.5
20260509210024 28 108 9.7 19.3 0.00 2.13 0.03 51 1008.6
20260509204526 28 120 8.0 17.7 0.00 2.13 0.03 49 1008.9
20260509203017 28 131 11.3 19.3 0.00 2.13 0.03 52 1008.9
20260509201517 27 115 12.9 17.7 0.00 2.13 0.03 64 1009.1
20260509200025 27 104 9.7 17.7 0.00 2.13 0.03 64 1009.3
20260509194530 27 63 3.2 14.5 0.00 2.13 0.03 67 1009.4
20260509193030 27 134 9.7 16.1 0.00 2.13 0.03 65 1009.6
20260509191532 26 143 8.0 0.0 0.00 2.13 0.03 69 1010.0
20260509190023 25 153 6.4 12.9 0.00 2.13 0.03 73 1010.3
20260509184535 25 64 6.4 16.1 0.00 2.13 0.03 78 1010.4
20260509183031 25 126 6.4 11.3 0.00 2.13 0.03 78 1010.7
20260509181513 24 109 3.2 14.5 0.00 2.13 0.03 81 1010.8
20260509180019 23 114 4.8 12.9 0.00 2.13 0.03 80 1011.1
20260509174524 23 212 8.0 16.1 0.00 2.13 0.03 83 1011.3
20260509173005 23 115 8.0 14.5 0.00 2.13 0.03 83 1011.6
20260509171509 23 120 4.8 12.9 0.00 2.13 0.03 83 1011.9
20260509170022 22 110 9.7 16.1 0.00 2.13 0.03 85 1012.1
20260509164522 22 112 6.4 12.9 0.00 2.13 0.03 85 1012.2
20260509163008 22 127 3.2 8.0 0.00 2.13 0.03 85 1012.3
20260509161511 22 113 3.2 9.7 0.00 2.13 0.03 88 1012.3
20260509160012 21 135 4.8 8.0 0.00 2.13 0.03 88 1012.3
20260509154518 21 202 6.4 11.3 0.00 2.13 0.03 88 1012.3
20260509153031 21 239 3.2 11.3 0.00 2.13 0.03 89 1012.5
20260509151505 21 189 3.2 9.7 0.00 2.13 0.03 90 1012.4
20260509150011 20 142 4.8 8.0 0.00 2.13 0.03 91 1012.4
20260509144519 19 236 3.2 6.4 0.00 2.13 0.03 93 1012.3
20260509143018 19 140 4.8 8.0 0.00 2.13 0.03 95 1012.3
20260509141524 18 245 3.2 6.4 0.00 2.13 0.03 96 1012.3
20260509140012 17 243 3.2 8.0 0.00 2.13 0.03 96 1012.4
20260509134513 17 226 3.2 4.8 0.00 2.13 0.03 96 1012.4
20260509133017 16 288 3.2 6.4 0.00 2.13 0.03 96 1012.3
20260509131520 15 233 4.8 9.7 0.00 2.13 0.03 96 1012.1
20260509130036 15 227 4.8 6.4 0.00 2.13 0.03 96 1011.9
20260509124511 15 277 3.2 4.8 0.00 2.13 0.03 96 1011.4
20260509123017 13 295 3.2 3.2 0.00 2.13 0.03 96 1011.1
20260509121525 13 307 4.8 4.8 0.00 2.13 0.03 96 1010.8
20260509120024 14 3 1.6 1.6 0.00 2.13 0.03 96 1010.7
20260509114526 13 20 0.0 0.0 0.00 2.13 0.03 96 1010.4
20260509113014 14 20 0.0 0.0 0.00 2.13 0.03 96 1010.3
20260509111517 14 21 0.0 3.2 0.03 2.13 0.03 96 1010.2
20260509110023 14 32 1.6 6.4 0.03 2.13 0.03 96 1010.2
20260509104526 14 37 1.6 3.2 0.03 2.13 0.03 96 1009.9
20260509103029 14 39 1.6 8.0 0.03 2.13 0.03 96 1009.9
20260509101523 14 20 3.2 8.0 0.00 2.11 0.00 96 1009.6
20260509100024 15 51 9.7 14.5 0.00 2.11 0.00 96 1009.7
20260509094525 14 27 4.8 8.0 0.00 2.11 0.00 96 1009.8
20260509093026 14 32 4.8 8.0 0.00 2.11 0.00 96 1010.1
20260509091512 13 34 3.2 8.0 0.00 2.11 0.00 96 1010.0
20260509090017 14 35 4.8 6.4 0.00 2.11 0.00 96 1010.3
20260509084503 14 51 4.8 8.0 0.00 2.11 0.00 96 1010.6
20260509083010 14 47 4.8 12.9 0.00 2.11 0.00 96 1010.6
20260509081511 14 79 0.0 3.2 0.00 2.11 0.00 96 1010.7
20260509080012 14 132 0.0 6.4 0.00 2.11 0.00 96 1010.4
20260509074516 15 349 0.0 3.2 0.00 2.11 0.00 96 1010.3
20260509073005 15 35 3.2 4.8 0.00 2.11 0.00 96 1010.6
20260509071504 15 117 3.2 8.0 0.00 2.11 0.00 96 1010.7
20260509070008 15 324 3.2 8.0 0.00 2.11 0.00 96 1010.5
20260509064514 15 304 4.8 9.7 0.00 2.11 0.00 96 1010.7
20260509063021 15 329 6.4 8.0 0.00 2.11 0.00 96 1010.6
20260509061505 15 323 6.4 8.0 0.00 2.11 0.00 96 1010.9
20260509060007 15 304 6.4 11.3 0.00 2.11 0.00 96 1010.7
20260509054514 15 286 6.4 9.7 0.00 2.11 0.00 96 1010.7
20260509053019 15 253 6.4 9.7 0.00 2.11 0.00 96 1011.1
20260509051519 15 271 4.8 6.4 0.00 2.11 0.00 96 1011.0
20260509050012 15 222 4.8 9.7 0.00 2.11 0.00 96 1010.8